Flag for Finland Weather past 2 weeks in Kemi, Finland

Now
18 °F

Clear.


Feels Like: 9 °F
Forecast: 24 / 32 °F
Wind: 6 mph from Southwest

Location: Kemi Airport

Current Time: Jan 27, 2015 at 9:36:16 PM

Latest Report: Jan 27, 2015 at 8:50 PM


Visibility: 10 mi

Pressure: 29.42 "Hg

Humidity: 100%

Dew point: 18 °F

Location of KemiLocation

Historic Weather in Kemi — Graph

°F

Kemi temperature yesterday

Maximum temperature yesterday: 32 °F (at 9:50 PM)
Minimum temperature yesterday: 21 °F (at 12:20 AM)
Average temperature yesterday: 29 °F

Past Weeks' High & Low Weather Summary

 TemperatureHumidityPressure
High34 °F (Jan 16, 9:50 PM)100% (Jan 14, 9:20 PM)30.54 "Hg (Jan 14, 9:20 PM)
Low-11 °F (Jan 12, 8:20 PM)76% (Jan 12, 8:20 PM)28.91 "Hg (Jan 17, 12:50 AM)
Average13 °F92%29.75 "Hg
* Reported Jan 12 8:20 PM — Jan 27 8:20 PM, Kemi, Weather by CustomWeather, © 2014

Note: Actual official high and low records may vary slightly from our data, if they occured in-between our weather recording intervals... More about our weather records

Advertising

Kemi weather history for previous 24 hours

 ConditionsComfort  
Time TempWeatherWind HumidityBarometerVisibility
8:20 PM
Jan 27
18 °FClear.5 mph93%29.42 "Hg10 mi
7:50 PM18 °FClear.6 mph100%29.42 "Hg10 mi
7:20 PM16 °FClear.6 mph100%29.42 "Hg10 mi
6:50 PM18 °FClear.7 mph100%29.45 "Hg10 mi
6:20 PM16 °FSnow flurries. Clear.5 mph100%29.45 "HgN/A
5:50 PM18 °FSnow flurries. Clear.5 mph93%29.45 "HgN/A
5:25 PM16 °FSnow flurries. Clear.7 mph100%29.45 "HgN/A
4:50 PM18 °FClear.6 mph100%29.45 "Hg10 mi
4:20 PM18 °FClear.6 mph93%29.45 "Hg5 mi
3:50 PM19 °FClear.6 mph100%29.45 "Hg3 mi
3:20 PM21 °FSprinkles. Ice fog.6 mph100%29.45 "Hg0 mi
2:50 PM21 °FSunny.8 mph100%29.47 "Hg10 mi
2:20 PM21 °FSunny.6 mph93%29.47 "Hg10 mi
1:20 PM19 °FSunny.6 mph93%29.47 "Hg10 mi
12:50 PM19 °FSunny.6 mph100%29.47 "Hg10 mi
12:20 PM21 °FPassing clouds.5 mph100%29.47 "HgN/A
11:50 AM21 °FPassing clouds.5 mph100%29.47 "HgN/A
11:20 AM23 °FPassing clouds.6 mph100%29.47 "HgN/A
10:50 AM23 °FIce fog.6 mph100%29.47 "HgN/A
10:20 AM21 °FIce fog.6 mph93%29.47 "Hg3 mi
9:50 AM23 °FPartly sunny.6 mph93%29.47 "Hg3 mi
9:20 AM25 °FIce fog.6 mph100%29.47 "Hg1 mi
8:50 AM23 °FPassing clouds.5 mph100%29.47 "HgN/A
8:20 AM25 °FPassing clouds.6 mph100%29.50 "HgN/A
7:50 AM27 °FPassing clouds.6 mph100%29.50 "HgN/A
7:20 AM27 °FPassing clouds.6 mph100%29.50 "HgN/A
6:50 AM27 °FPassing clouds.5 mph100%29.50 "HgN/A
5:50 AM28 °FPassing clouds.6 mph100%29.50 "HgN/A
5:20 AM28 °FPassing clouds.6 mph100%29.50 "HgN/A
4:50 AM28 °FPassing clouds.5 mph100%29.50 "HgN/A
4:20 AM28 °FPassing clouds.5 mph100%29.50 "HgN/A
3:50 AM30 °FPassing clouds.7 mph100%29.50 "HgN/A
3:20 AM30 °FPassing clouds.8 mph100%29.50 "HgN/A
2:50 AM30 °FLow clouds.7 mph100%29.53 "HgN/A
2:20 AM30 °FPassing clouds.7 mph100%29.53 "HgN/A
1:50 AM30 °FPassing clouds.8 mph100%29.53 "HgN/A
1:20 AM30 °FPassing clouds.7 mph100%29.53 "HgN/A
12:50 AM30 °FLow clouds.9 mph100%29.53 "HgN/A
12:20 AM30 °FLow clouds.7 mph100%29.53 "HgN/A
11:50 PM
Jan 26
32 °FLow clouds.8 mph100%29.53 "HgN/A
11:20 PM32 °FLow clouds.9 mph100%29.53 "HgN/A
10:50 PM32 °FLow clouds.10 mph100%29.53 "HgN/A
10:20 PM32 °FLight freezing rain. Low clouds.12 mph100%29.53 "Hg4 mi
9:50 PM32 °FLight freezing rain. Ice fog.14 mph100%29.53 "Hg2 mi
9:20 PM30 °FLight snow. Ice fog.17 mph100%29.53 "Hg1 mi
Weather by CustomWeather, © 2014

See weather overviewHow to use our weather pages